Regional Weather Roundup
Issued by NWS

Home | Current Version | Previous Version | Graphics & Text | Print | Product List | Glossary On
Versions: 1 2 3 4 5 6 7 8 9 10 11 12 13 14 15 16 17 18 19 20 21 22 23 24 25 26 27 28 29 30 31 32 33 34 35 36 37 38 39 40 41 42 43 44 45 46 47 48 49 50
249
ASUS45 KBOU 272307
RWRCO

WEATHER ROUNDUP FOR COLORADO
NATIONAL WEATHER SERVICE DENVER/BOULDER CO
500 PM MDT SAT AUG 27 2016

NOTE: "FAIR" INDICATES FEW OR NO CLOUDS BELOW 12000 FEET WITH NO
SIGNIFICANT WEATHER AND/OR OBSTRUCTIONS TO VISIBILITY.

COZ001>005-013-030-031-280000-
...NORTHWEST COLORADO...

CITY           SKY/WX    TMP DP  RH WIND       PRES   REMARKS
CRAIG          FAIR      78  27  15 W10       30.14S
HAYDEN         FAIR      73  28  19 NW7       30.16S
MEEKER         FAIR      74  42  31 S10       30.16S
MOUNT WERNER   NOT AVBL
STEAMBOAT SPGS FAIR      73  30  20 W8        30.17F
WALDEN         FAIR      70  25  18 W10       30.27R
$$

COZ006>008-011-280000-
...WEST CENTRAL VALLEYS...

CITY           SKY/WX    TMP DP  RH WIND       PRES   REMARKS
GRAND JUNCTION FAIR      78  40  25 SE3       30.09F
MONTROSE       PTSUNNY   71  46  40 SE24      30.20S
EAGLE          MOSUNNY   73  30  20 CALM      30.19F
RIFLE          FAIR      77  43  29 N5        30.11F
DELTA          NOT AVBL
NUCLA          LGT RAIN N/A N/A N/A E13       30.25R
$$

COZ017>023-064>068-280000-
...SOUTHWEST COLORADO...

CITY           SKY/WX    TMP DP  RH WIND       PRES   REMARKS
DURANGO        CLOUDY    63  46  54 S21G38    30.23R
CORTEZ         FAIR      69  48  47 W13G18    30.18S
PAGOSA SPRINGS CLOUDY    68  38  33 W8        30.28R
TELLURIDE      PTSUNNY   52  47  85 CALM      30.41S
WOLF CREEK PAS CLOUDY    45  34  65 S12G22    30.56R THUNDER
$$

COZ009-010-012-014-032>034-037-058>063-280000-
...CENTRAL COLORADO...

CITY           SKY/WX    TMP DP  RH WIND       PRES   REMARKS
ASPEN          FAIR      65  39  38 SE8       30.27F
BUENA VISTA    CLOUDY    64  37  37 NW9G16    30.28R
COPPER MTN     CLOUDY    45  34  65 W5        30.56R
BERTHOUD PASS  FAIR      46  34  61 NW9G23    30.56R
COTTONWOOD PAS PTSUNNY   61  34  36 CALM      30.41S
GUNNISON       CLOUDY    57  46  67 SE7       30.36R
KREMMLING      FAIR      73  27  17 SW14G20   30.22R
LEADVILLE      FAIR      53  33  46 N9        30.40S
MONARCH PASS   FOG       39  37  93 W22       30.65R VSB<1/4
SALIDA         CLOUDY    69  39  34 W18G26    30.33R
SUNLIGHT       FAIR      55  37  50 CALM      30.49S
WILKERSON PASS PTSUNNY   59  32  36 CALM      30.51S
$$

COZ069>075-280000-
...SAN LUIS VALLEY/SANGRE DE CRISTO MOUNTAINS...

CITY           SKY/WX    TMP DP  RH WIND       PRES   REMARKS
ALAMOSA        FAIR      70  38  31 S15G24    30.22S
LA VETA PASS   FAIR      59  32  36 S6        30.41S
SAGUACHE       PTSUNNY   63  41  45 NW26G35   30.29R
$$

COZ035-036-038>040-280000-
...NORTHERN COLORADO FRONT RANGE...

CITY           SKY/WX    TMP DP  RH WIND       PRES   REMARKS
DENVER INTL AP FAIR      82  35  18 E8        30.06F
DMNS CITY PARK   N/A     81  36  20 SE2       30.06S
AURORA         PTSUNNY   82  34  17 S3        30.09S
FRONT RANGE AP MOSUNNY   84  36  17 E12       30.08F
ERIE MUNI ARPT NOT AVBL
BOULDER MUN AP FAIR      81  36  19 SE7       30.04R
CENTENNIAL     PTSUNNY   79  32  18 SE8       30.09F
BROOMFIELD     PTSUNNY   82  32  16 SE7       30.08S
FORT COLLINS   FAIR      84  37  18 SE9G18    29.99S
LONGMONT       FAIR      86  33  15 S5        30.04S
$$

COZ041-046-047-076>085-087-088-280000-
...PIKES PEAK/PALMER DIVIDE AND SOUTHERN FOOTHILLS...

CITY           SKY/WX    TMP DP  RH WIND       PRES   REMARKS
COLO. SPRINGS  PTSUNNY   81  32  17 CALM      30.12F
A. F. ACADEMY  CLOUDY    75  35  23 NW7       30.14R
SCHRIEVER AFB  NOT AVBL
ELLICOTT       NOT AVBL
FALCON         PTSUNNY   79  32  17 SE3       30.19R
FORT CARSON    FAIR      79  37  22 E3        30.09S
LIMON          FAIR      75  45  34 SE16      30.09S
MONUMENT HILL  FAIR      72  32  23 CALM      30.21R
TRINIDAD       FAIR      80  39  23 S10       30.09F
$$

COZ042>045-048>051-090-091-280000-
...NORTHEAST COLORADO...

CITY           SKY/WX    TMP DP  RH WIND       PRES   REMARKS
GREELEY ARPT   FAIR      82  39  21 SE6       30.03S
AKRON          FAIR      82  48  30 SE8       30.05S
BURLINGTON     PTSUNNY   75  54  47 W13       30.09R
WRAY           FAIR      82  54  36 SE13G20   30.01S
STERLING       FAIR      86  43  22 S3        29.99S
HOLYOKE        FAIR      81  57  44 S8        30.02R
FORT MORGAN    FAIR      85  32  15 S6        30.03F
$$

COZ086-089-092>099-280000-
...SOUTHEAST COLORADO...

CITY           SKY/WX    TMP DP  RH WIND       PRES   REMARKS
PUEBLO         FAIR      89  36  15 SW6       30.00S
LA JUNTA       FAIR      89  42  19 E9        29.98F
LAMAR          FAIR      87  49  26 E6        29.95F
SPRINGFIELD      N/A     83  51  33 SE13      30.01R
$$




USA.gov is the U.S. government's official web portal to all federal, state and local government web resources and services.